| time (UTC) | temp F | wind direction | speed knots | gust knots | rain 1hr in | rain 24hr in | rain mn in | humidity % | barometer mb |
| 20260507051525 | 55 | 198 | 0.0 | 5.2 | 0.00 | 0.00 | 0.00 | 79 | 1019.4 |
| 20260507051024 | 55 | 209 | 0.0 | 4.3 | 0.00 | 0.00 | 0.00 | 79 | 1019.3 |
| 20260507050523 | 55 | 289 | 0.9 | 4.3 | 0.00 | 0.00 | 0.00 | 79 | 1019.2 |
| 20260507050029 | 56 | 208 | 0.0 | 3.5 | 0.00 | 0.00 | 0.00 | 80 | 1019.3 |
| 20260507045526 | 56 | 219 | 0.0 | 3.5 | 0.00 | 0.00 | 0.00 | 80 | 1019.2 |
| 20260507045023 | 56 | 197 | 0.0 | 4.3 | 0.00 | 0.00 | 0.00 | 80 | 1019.3 |
| 20260507044525 | 56 | 200 | 0.9 | 4.3 | 0.00 | 0.00 | 0.00 | 80 | 1019.3 |
| 20260507044027 | 56 | 226 | 0.0 | 3.5 | 0.00 | 0.00 | 0.00 | 81 | 1019.3 |
| 20260507043522 | 56 | 246 | 0.0 | 3.5 | 0.00 | 0.00 | 0.00 | 81 | 1019.3 |
| 20260507043023 | 56 | 218 | 0.0 | 3.5 | 0.00 | 0.00 | 0.00 | 81 | 1019.4 |
| 20260507042522 | 56 | 189 | 0.9 | 3.5 | 0.00 | 0.00 | 0.00 | 81 | 1019.4 |
| 20260507042026 | 56 | 189 | 0.9 | 2.6 | 0.00 | 0.00 | 0.00 | 81 | 1019.3 |
| 20260507041521 | 56 | 196 | 0.0 | 2.6 | 0.00 | 0.00 | 0.00 | 81 | 1019.3 |
| 20260507041023 | 56 | 176 | 0.0 | 2.6 | 0.00 | 0.00 | 0.00 | 81 | 1019.3 |
| 20260507040521 | 57 | 176 | 0.0 | 2.6 | 0.00 | 0.00 | 0.00 | 81 | 1019.3 |
| 20260507040019 | 57 | 178 | 0.0 | 2.6 | 0.00 | 0.00 | 0.00 | 82 | 1019.3 |
| 20260507035520 | 57 | 229 | 0.0 | 2.6 | 0.00 | 0.00 | 0.00 | 82 | 1019.2 |
| 20260507035019 | 57 | 218 | 0.0 | 2.6 | 0.00 | 0.00 | 0.00 | 82 | 1019.2 |
| 20260507034521 | 57 | 207 | 0.0 | 3.5 | 0.00 | 0.00 | 0.00 | 82 | 1019.1 |
| 20260507034022 | 57 | 207 | 0.0 | 3.5 | 0.00 | 0.00 | 0.00 | 82 | 1019.1 |
| 20260507033517 | 57 | 206 | 0.0 | 2.6 | 0.00 | 0.00 | 0.00 | 82 | 1019.0 |
| 20260507033021 | 57 | 182 | 0.0 | 2.6 | 0.00 | 0.00 | 0.00 | 82 | 1019.1 |
| 20260507032517 | 57 | 200 | 0.0 | 0.9 | 0.00 | 0.00 | 0.00 | 82 | 1019.1 |
| 20260507032022 | 57 | 200 | 0.0 | 0.9 | 0.00 | 0.00 | 0.00 | 82 | 1019.0 |
| 20260507031516 | 57 | 200 | 0.0 | 0.0 | 0.00 | 0.00 | 0.00 | 82 | 1019.1 |
| 20260507031021 | 57 | 200 | 0.0 | 0.0 | 0.00 | 0.00 | 0.00 | 82 | 1019.0 |
| 20260507030516 | 57 | 200 | 0.0 | 1.7 | 0.00 | 0.00 | 0.00 | 82 | 1019.0 |
| 20260507030016 | 58 | 200 | 0.0 | 2.6 | 0.00 | 0.00 | 0.00 | 81 | 1019.0 |
| 20260507025516 | 58 | 199 | 0.0 | 2.6 | 0.00 | 0.00 | 0.00 | 81 | 1018.9 |
| 20260507025018 | 58 | 217 | 0.0 | 3.5 | 0.00 | 0.00 | 0.00 | 81 | 1018.9 |
| 20260507024516 | 58 | 217 | 0.0 | 3.5 | 0.00 | 0.00 | 0.00 | 81 | 1018.9 |
| 20260507024015 | 58 | 206 | 0.0 | 1.7 | 0.00 | 0.00 | 0.00 | 81 | 1018.8 |
| 20260507023515 | 58 | 204 | 0.0 | 2.6 | 0.00 | 0.00 | 0.00 | 81 | 1018.7 |
| 20260507023015 | 58 | 204 | 0.0 | 3.5 | 0.00 | 0.00 | 0.00 | 81 | 1018.8 |
| 20260507022515 | 58 | 202 | 0.0 | 3.5 | 0.00 | 0.00 | 0.00 | 80 | 1018.8 |
| 20260507022014 | 58 | 200 | 0.0 | 3.5 | 0.00 | 0.00 | 0.00 | 79 | 1018.7 |
| 20260507021515 | 58 | 190 | 0.9 | 3.5 | 0.00 | 0.00 | 0.00 | 80 | 1018.7 |
| 20260507021015 | 58 | 194 | 0.0 | 1.7 | 0.00 | 0.00 | 0.00 | 80 | 1018.7 |
| 20260507020515 | 59 | 217 | 0.0 | 1.7 | 0.00 | 0.00 | 0.00 | 80 | 1018.7 |
| 20260507020017 | 58 | 266 | 0.0 | 3.5 | 0.00 | 0.00 | 0.00 | 80 | 1018.7 |
| 20260507015515 | 59 | 266 | 0.9 | 3.5 | 0.00 | 0.00 | 0.00 | 80 | 1018.7 |
| 20260507015014 | 59 | 192 | 0.0 | 2.6 | 0.00 | 0.00 | 0.00 | 80 | 1018.6 |
| 20260507014514 | 59 | 203 | 0.0 | 2.6 | 0.00 | 0.00 | 0.00 | 80 | 1018.6 |
| 20260507014014 | 59 | 200 | 0.0 | 3.5 | 0.00 | 0.00 | 0.00 | 79 | 1018.7 |
| 20260507013513 | 59 | 200 | 0.0 | 3.5 | 0.00 | 0.00 | 0.00 | 79 | 1018.6 |
| 20260507013016 | 59 | 176 | 0.0 | 0.0 | 0.00 | 0.00 | 0.00 | 79 | 1018.7 |
| 20260507012513 | 59 | 177 | 0.0 | 0.9 | 0.00 | 0.00 | 0.00 | 80 | 1018.8 |
| 20260507012013 | 58 | 197 | 0.0 | 4.3 | 0.00 | 0.00 | 0.00 | 79 | 1018.8 |
| 20260507011526 | 58 | 190 | 0.9 | 4.3 | 0.00 | 0.00 | 0.00 | 79 | 1018.7 |
| 20260507011013 | 59 | 186 | 0.9 | 3.5 | 0.00 | 0.00 | 0.00 | 79 | 1018.8 |
| 20260507010513 | 59 | 197 | 0.0 | 3.5 | 0.00 | 0.00 | 0.00 | 79 | 1018.8 |
| 20260507010013 | 59 | 235 | 0.9 | 3.5 | 0.00 | 0.00 | 0.00 | 79 | 1018.8 |
| 20260507005513 | 59 | 210 | 0.0 | 3.5 | 0.00 | 0.00 | 0.00 | 78 | 1018.8 |
| 20260507005019 | 59 | 191 | 0.0 | 3.5 | 0.00 | 0.00 | 0.00 | 78 | 1018.9 |
| 20260507004512 | 59 | 203 | 0.0 | 2.6 | 0.00 | 0.00 | 0.00 | 78 | 1018.9 |
| 20260507004012 | 59 | 205 | 0.9 | 5.2 | 0.00 | 0.00 | 0.00 | 78 | 1018.8 |
| 20260507003513 | 59 | 207 | 0.9 | 5.2 | 0.00 | 0.00 | 0.00 | 77 | 1018.8 |
| 20260507003012 | 59 | 211 | 0.9 | 3.5 | 0.00 | 0.00 | 0.00 | 77 | 1018.8 |
| 20260507002512 | 59 | 182 | 0.0 | 3.5 | 0.00 | 0.00 | 0.00 | 77 | 1018.9 |
| 20260507002012 | 59 | 194 | 0.0 | 3.5 | 0.00 | 0.00 | 0.00 | 77 | 1018.8 |
| 20260507001514 | 59 | 194 | 0.9 | 3.5 | 0.00 | 0.00 | 0.00 | 77 | 1018.9 |
| 20260507001011 | 59 | 200 | 0.0 | 3.5 | 0.00 | 0.00 | 0.00 | 77 | 1018.8 |
| 20260507000511 | 59 | 201 | 0.9 | 4.3 | 0.00 | 0.00 | 0.00 | 77 | 1018.8 |
| 20260507000011 | 59 | 159 | 0.9 | 4.3 | 0.00 | 0.00 | 0.00 | 77 | 1018.8 |
| 20260506235513 | 59 | 192 | 1.7 | 5.2 | 0.00 | 0.00 | 0.00 | 77 | 1018.8 |
| 20260506235010 | 59 | 163 | 0.9 | 5.2 | 0.00 | 0.00 | 0.00 | 77 | 1018.8 |
| 20260506234510 | 59 | 195 | 0.0 | 2.6 | 0.00 | 0.00 | 0.00 | 77 | 1018.8 |
| 20260506234011 | 59 | 218 | 0.9 | 2.6 | 0.00 | 0.00 | 0.00 | 76 | 1018.9 |
| 20260506233510 | 59 | 208 | 0.0 | 2.6 | 0.00 | 0.00 | 0.00 | 76 | 1018.9 |
| 20260506233010 | 59 | 236 | 0.0 | 3.5 | 0.00 | 0.00 | 0.00 | 77 | 1018.9 |
| 20260506232511 | 59 | 218 | 0.0 | 5.2 | 0.00 | 0.00 | 0.00 | 77 | 1018.9 |
| 20260506232010 | 59 | 192 | 0.9 | 5.2 | 0.00 | 0.00 | 0.00 | 76 | 1019.0 |
| 20260506231510 | 60 | 219 | 0.0 | 4.3 | 0.00 | 0.00 | 0.00 | 76 | 1018.9 |
| 20260506231010 | 60 | 194 | 0.9 | 4.3 | 0.00 | 0.00 | 0.00 | 76 | 1018.9 |
| 20260506230509 | 60 | 155 | 0.0 | 2.6 | 0.00 | 0.00 | 0.00 | 76 | 1018.9 |
| 20260506230009 | 60 | 221 | 0.0 | 2.6 | 0.00 | 0.00 | 0.00 | 76 | 1019.0 |
| 20260506225514 | 59 | 198 | 0.0 | 3.5 | 0.00 | 0.00 | 0.00 | 76 | 1019.0 |
| 20260506225016 | 59 | 181 | 0.0 | 3.5 | 0.00 | 0.00 | 0.00 | 76 | 1019.0 |
| 20260506224509 | 60 | 184 | 0.9 | 3.5 | 0.00 | 0.00 | 0.00 | 75 | 1019.0 |
| 20260506224009 | 60 | 205 | 0.0 | 4.3 | 0.00 | 0.00 | 0.00 | 75 | 1019.0 |
| 20260506223508 | 60 | 287 | 0.9 | 3.5 | 0.00 | 0.00 | 0.00 | 74 | 1019.0 |
| 20260506223015 | 60 | 253 | 0.0 | 3.5 | 0.00 | 0.00 | 0.00 | 74 | 1019.0 |
| 20260506222509 | 60 | 242 | 0.0 | 3.5 | 0.00 | 0.00 | 0.00 | 74 | 1019.0 |
| 20260506222011 | 60 | 199 | 0.0 | 4.3 | 0.00 | 0.00 | 0.00 | 74 | 1019.0 |
| 20260506221509 | 60 | 167 | 0.9 | 5.2 | 0.00 | 0.00 | 0.00 | 74 | 1019.0 |
| 20260506221010 | 60 | 253 | 0.0 | 4.3 | 0.00 | 0.00 | 0.00 | 74 | 1019.1 |
| 20260506220508 | 60 | 240 | 0.0 | 4.3 | 0.00 | 0.00 | 0.00 | 73 | 1019.1 |
| 20260506220008 | 60 | 68 | 0.0 | 4.3 | 0.00 | 0.00 | 0.00 | 73 | 1019.1 |
| 20260506215507 | 60 | 139 | 0.9 | 3.5 | 0.00 | 0.00 | 0.00 | 73 | 1019.2 |
| 20260506215007 | 60 | 233 | 0.9 | 4.3 | 0.00 | 0.00 | 0.00 | 73 | 1019.3 |
| 20260506214507 | 60 | 250 | 0.9 | 4.3 | 0.00 | 0.00 | 0.00 | 73 | 1019.1 |
| 20260506214007 | 60 | 232 | 1.7 | 3.5 | 0.00 | 0.00 | 0.00 | 73 | 1019.1 |
| 20260506213507 | 60 | 182 | 0.9 | 3.5 | 0.00 | 0.00 | 0.00 | 72 | 1019.1 |
| 20260506213007 | 60 | 217 | 0.0 | 3.5 | 0.00 | 0.00 | 0.00 | 72 | 1019.2 |
| 20260506212507 | 60 | 242 | 0.0 | 2.6 | 0.00 | 0.00 | 0.00 | 73 | 1019.1 |
| 20260506212010 | 60 | 242 | 0.0 | 4.3 | 0.00 | 0.00 | 0.00 | 72 | 1019.2 |
| 20260506211507 | 61 | 201 | 0.0 | 4.3 | 0.00 | 0.00 | 0.00 | 72 | 1019.2 |
| 20260506211006 | 61 | 232 | 0.9 | 4.3 | 0.00 | 0.00 | 0.00 | 71 | 1019.2 |
| 20260506210506 | 62 | 202 | 0.9 | 4.3 | 0.00 | 0.00 | 0.00 | 70 | 1019.2 |
| 20260506210009 | 62 | 238 | 0.9 | 4.3 | 0.00 | 0.00 | 0.00 | 70 | 1019.1 |
| 20260506205505 | 62 | 219 | 0.0 | 2.6 | 0.00 | 0.00 | 0.00 | 70 | 1019.1 |
| 20260506205003 | 62 | 273 | 0.0 | 2.6 | 0.00 | 0.00 | 0.00 | 71 | 1019.1 |
| 20260506204502 | 61 | 228 | 0.0 | 2.6 | 0.00 | 0.00 | 0.00 | 71 | 1019.1 |
| 20260506204001 | 61 | 257 | 0.0 | 3.5 | 0.00 | 0.00 | 0.00 | 72 | 1019.1 |
| 20260506203501 | 61 | 278 | 0.9 | 3.5 | 0.00 | 0.00 | 0.00 | 71 | 1019.1 |
| 20260506203001 | 61 | 243 | 0.9 | 3.5 | 0.00 | 0.00 | 0.00 | 72 | 1019.1 |
| 20260506202600 | 61 | 244 | 0.0 | 2.6 | 0.00 | 0.00 | 0.00 | 73 | 1019.1 |
| 20260506202059 | 60 | 184 | 0.0 | 4.3 | 0.00 | 0.00 | 0.00 | 73 | 1019.0 |
| 20260506201559 | 60 | 211 | 0.0 | 6.1 | 0.00 | 0.00 | 0.00 | 74 | 1019.0 |
| 20260506201058 | 60 | 203 | 0.9 | 6.1 | 0.00 | 0.00 | 0.00 | 74 | 1019.1 |
| 20260506200558 | 60 | 251 | 0.0 | 2.6 | 0.00 | 0.00 | 0.00 | 74 | 1019.1 |
| 20260506200059 | 60 | 205 | 0.0 | 6.1 | 0.00 | 0.00 | 0.00 | 76 | 1019.1 |
| 20260506195556 | 59 | 242 | 0.0 | 4.3 | 0.00 | 0.00 | 0.00 | 76 | 1019.0 |
| 20260506195055 | 59 | 209 | 0.9 | 7.0 | 0.00 | 0.00 | 0.00 | 77 | 1019.0 |
| 20260506194556 | 59 | 227 | 0.9 | 7.0 | 0.00 | 0.00 | 0.00 | 78 | 1018.9 |
| 20260506194053 | 59 | 168 | 1.7 | 6.1 | 0.00 | 0.00 | 0.00 | 77 | 1018.9 |
| 20260506193558 | 59 | 229 | 1.7 | 6.1 | 0.00 | 0.00 | 0.00 | 77 | 1018.9 |
| 20260506193053 | 59 | 228 | 0.9 | 4.3 | 0.00 | 0.00 | 0.00 | 78 | 1018.9 |
| 20260506192553 | 58 | 218 | 0.9 | 7.0 | 0.00 | 0.00 | 0.00 | 78 | 1018.9 |
| 20260506192053 | 59 | 216 | 0.9 | 5.2 | 0.00 | 0.00 | 0.00 | 78 | 1018.9 |
| 20260506191553 | 59 | 244 | 0.9 | 4.3 | 0.00 | 0.00 | 0.00 | 78 | 1018.9 |
| 20260506191054 | 59 | 202 | 0.9 | 6.1 | 0.00 | 0.00 | 0.00 | 78 | 1018.9 |
| 20260506190554 | 59 | 246 | 0.9 | 6.1 | 0.00 | 0.00 | 0.00 | 78 | 1018.8 |
| 20260506190054 | 59 | 252 | 0.0 | 4.3 | 0.00 | 0.00 | 0.00 | 80 | 1018.8 |
| 20260506185550 | 58 | 219 | 0.0 | 4.3 | 0.00 | 0.00 | 0.00 | 80 | 1018.8 |
| 20260506185050 | 58 | 218 | 0.9 | 6.1 | 0.00 | 0.00 | 0.00 | 80 | 1018.9 |
| 20260506185020 | 58 | 211 | 0.9 | 6.1 | 0.00 | 0.00 | 0.00 | 80 | 1018.9 |
| 20260506184552 | 58 | 227 | 0.9 | 6.1 | 0.00 | 0.00 | 0.00 | 80 | 1018.8 |
| 20260506184050 | 58 | 194 | 1.7 | 5.2 | 0.00 | 0.00 | 0.00 | 80 | 1018.8 |
| 20260506183551 | 58 | 257 | 0.9 | 5.2 | 0.00 | 0.00 | 0.00 | 80 | 1018.8 |
| 20260506183050 | 58 | 213 | 0.0 | 3.5 | 0.00 | 0.00 | 0.00 | 81 | 1018.8 |
| 20260506182547 | 58 | 211 | 0.9 | 5.2 | 0.00 | 0.00 | 0.00 | 81 | 1018.8 |
| 20260506182049 | 58 | 178 | 0.9 | 5.2 | 0.00 | 0.00 | 0.00 | 81 | 1018.8 |
| 20260506181548 | 58 | 174 | 0.9 | 5.2 | 0.00 | 0.00 | 0.00 | 82 | 1018.8 |
| 20260506181047 | 58 | 217 | 0.9 | 5.2 | 0.00 | 0.00 | 0.00 | 81 | 1018.8 |
| 20260506180547 | 58 | 223 | 0.0 | 4.3 | 0.00 | 0.00 | 0.00 | 82 | 1018.9 |
| 20260506180048 | 58 | 262 | 0.0 | 2.6 | 0.00 | 0.00 | 0.00 | 81 | 1018.8 |
| 20260506175545 | 57 | 281 | 0.9 | 6.1 | 0.00 | 0.00 | 0.00 | 81 | 1018.8 |
| 20260506175044 | 57 | 227 | 1.7 | 6.1 | 0.00 | 0.00 | 0.00 | 80 | 1018.5 |
| 20260506174543 | 57 | 187 | 0.0 | 6.1 | 0.00 | 0.00 | 0.00 | 79 | 1018.3 |
| 20260506174043 | 57 | 214 | 0.9 | 6.1 | 0.00 | 0.00 | 0.00 | 79 | 1018.3 |
| 20260506173543 | 56 | 219 | 0.0 | 5.2 | 0.00 | 0.00 | 0.00 | 76 | 1018.4 |
| 20260506173120 | 56 | 178 | 0.9 | 5.2 | 0.00 | 0.00 | 0.00 | 76 | 1018.3 |
| 20260506172543 | 56 | 242 | 0.0 | 5.2 | 0.00 | 0.00 | 0.00 | 76 | 1018.6 |
| 20260506172043 | 55 | 231 | 0.9 | 7.0 | 0.00 | 0.00 | 0.00 | 75 | 1018.6 |
| 20260506171543 | 55 | 210 | 0.9 | 6.1 | 0.00 | 0.00 | 0.00 | 75 | 1018.8 |
| 20260506171043 | 55 | 200 | 0.0 | 5.2 | 0.00 | 0.00 | 0.00 | 76 | 1018.6 |
| 20260506170541 | 56 | 205 | 0.0 | 3.5 | 0.00 | 0.00 | 0.00 | 75 | 1018.6 |
| 20260506170042 | 55 | 227 | 0.0 | 2.6 | 0.00 | 0.00 | 0.00 | 76 | 1018.7 |
| 20260506165540 | 55 | 214 | 0.9 | 4.3 | 0.00 | 0.00 | 0.00 | 77 | 1018.7 |
| 20260506165041 | 55 | 252 | 0.9 | 4.3 | 0.00 | 0.00 | 0.00 | 76 | 1018.6 |
| 20260506164541 | 55 | 184 | 0.0 | 4.3 | 0.00 | 0.00 | 0.00 | 75 | 1018.6 |
| 20260506164040 | 55 | 252 | 1.7 | 4.3 | 0.00 | 0.00 | 0.00 | 75 | 1018.5 |
| 20260506163540 | 55 | 197 | 0.0 | 4.3 | 0.00 | 0.00 | 0.00 | 74 | 1018.5 |
| 20260506163042 | 55 | 211 | 0.9 | 4.3 | 0.00 | 0.00 | 0.00 | 74 | 1018.6 |
| 20260506162539 | 55 | 270 | 1.7 | 3.5 | 0.00 | 0.00 | 0.00 | 72 | 1018.6 |
| 20260506162039 | 55 | 166 | 0.0 | 5.2 | 0.00 | 0.00 | 0.00 | 71 | 1018.4 |
| 20260506161540 | 55 | 216 | 0.0 | 5.2 | 0.00 | 0.00 | 0.00 | 70 | 1018.3 |
| 20260506161038 | 55 | 230 | 0.0 | 6.1 | 0.00 | 0.00 | 0.00 | 67 | 1018.2 |
| 20260506160539 | 55 | 236 | 0.9 | 6.1 | 0.00 | 0.00 | 0.00 | 66 | 1018.2 |
| 20260506160038 | 55 | 237 | 1.7 | 5.2 | 0.00 | 0.00 | 0.00 | 62 | 1017.9 |
| 20260506155538 | 54 | 169 | 0.9 | 5.2 | 0.00 | 0.00 | 0.00 | 61 | 1017.9 |
| 20260506155038 | 54 | 179 | 0.0 | 5.2 | 0.00 | 0.00 | 0.00 | 59 | 1017.9 |
| 20260506154540 | 54 | 196 | 0.9 | 5.2 | 0.00 | 0.00 | 0.00 | 61 | 1017.9 |
| 20260506154038 | 54 | 217 | 0.9 | 4.3 | 0.00 | 0.00 | 0.00 | 60 | 1017.9 |
| 20260506153538 | 54 | 195 | 0.9 | 4.3 | 0.00 | 0.00 | 0.00 | 60 | 1018.1 |
| 20260506153043 | 54 | 205 | 0.9 | 4.3 | 0.00 | 0.00 | 0.00 | 59 | 1018.1 |
| 20260506152537 | 54 | 191 | 0.0 | 6.1 | 0.00 | 0.00 | 0.00 | 60 | 1018.2 |
| 20260506152037 | 54 | 127 | 0.9 | 6.1 | 0.00 | 0.00 | 0.00 | 60 | 1018.3 |
| 20260506151537 | 54 | 184 | 0.0 | 0.0 | 0.00 | 0.00 | 0.00 | 59 | 1018.4 |
| 20260506151036 | 54 | 184 | 0.0 | 1.7 | 0.00 | 0.00 | 0.00 | 58 | 1018.4 |
| 20260506150536 | 54 | 184 | 0.9 | 1.7 | 0.00 | 0.00 | 0.00 | 59 | 1018.4 |
| 20260506150035 | 54 | 211 | 0.0 | 4.3 | 0.00 | 0.00 | 0.00 | 59 | 1018.2 |
| 20260506145535 | 54 | 187 | 0.9 | 4.3 | 0.00 | 0.00 | 0.00 | 60 | 1018.0 |
| 20260506145037 | 54 | 219 | 0.9 | 6.1 | 0.00 | 0.00 | 0.00 | 60 | 1017.8 |
| 20260506144538 | 54 | 239 | 1.7 | 6.1 | 0.00 | 0.00 | 0.00 | 60 | 1017.7 |
| 20260506144034 | 54 | 196 | 0.0 | 3.5 | 0.00 | 0.00 | 0.00 | 60 | 1018.0 |
| 20260506143534 | 53 | 236 | 0.0 | 4.3 | 0.00 | 0.00 | 0.00 | 60 | 1018.0 |
| 20260506143037 | 53 | 192 | 0.0 | 4.3 | 0.00 | 0.00 | 0.00 | 62 | 1018.0 |
| 20260506142532 | 53 | 261 | 0.0 | 3.5 | 0.00 | 0.00 | 0.00 | 62 | 1018.1 |
| 20260506142032 | 53 | 178 | 0.0 | 3.5 | 0.00 | 0.00 | 0.00 | 62 | 1018.1 |
| 20260506141533 | 53 | 211 | 0.0 | 0.0 | 0.00 | 0.00 | 0.00 | 63 | 1017.9 |
| 20260506141031 | 53 | 211 | 0.0 | 0.0 | 0.00 | 0.00 | 0.00 | 64 | 1017.9 |
| 20260506140531 | 53 | 214 | 0.0 | 0.0 | 0.00 | 0.00 | 0.00 | 65 | 1017.9 |
| 20260506140029 | 53 | 225 | 0.0 | 2.6 | 0.00 | 0.00 | 0.00 | 66 | 1017.8 |
| 20260506135530 | 53 | 198 | 0.0 | 3.5 | 0.00 | 0.00 | 0.00 | 67 | 1017.8 |
| 20260506135029 | 53 | 188 | 0.0 | 3.5 | 0.00 | 0.00 | 0.00 | 68 | 1017.8 |
| 20260506134528 | 53 | 143 | 0.0 | 2.6 | 0.00 | 0.00 | 0.00 | 69 | 1017.8 |
| 20260506134032 | 53 | 211 | 0.0 | 2.6 | 0.00 | 0.00 | 0.00 | 69 | 1017.9 |
| 20260506133528 | 53 | 236 | 0.0 | 0.0 | 0.00 | 0.00 | 0.00 | 70 | 1017.8 |
| 20260506133028 | 53 | 236 | 0.0 | 1.7 | 0.00 | 0.00 | 0.00 | 70 | 1017.6 |
| 20260506132532 | 53 | 236 | 0.0 | 3.5 | 0.00 | 0.00 | 0.00 | 70 | 1017.6 |
| 20260506132029 | 54 | 246 | 0.0 | 1.7 | 0.00 | 0.00 | 0.00 | 71 | 1017.7 |
| 20260506131532 | 54 | 246 | 0.0 | 3.5 | 0.00 | 0.00 | 0.00 | 71 | 1017.6 |
| 20260506131026 | 54 | 211 | 0.0 | 1.7 | 0.00 | 0.00 | 0.00 | 71 | 1017.6 |
| 20260506130526 | 54 | 216 | 0.0 | 0.0 | 0.00 | 0.00 | 0.00 | 71 | 1017.6 |
| 20260506130026 | 54 | 215 | 0.0 | 5.2 | 0.00 | 0.00 | 0.00 | 71 | 1017.6 |
| 20260506125525 | 54 | 215 | 0.0 | 6.1 | 0.00 | 0.00 | 0.00 | 72 | 1017.4 |
| 20260506125026 | 54 | 203 | 0.0 | 6.1 | 0.00 | 0.00 | 0.00 | 72 | 1017.0 |
| 20260506124522 | 54 | 191 | 0.0 | 2.6 | 0.00 | 0.00 | 0.00 | 72 | 1017.1 |
| 20260506124023 | 54 | 187 | 0.0 | 4.3 | 0.00 | 0.00 | 0.00 | 72 | 1017.3 |
| 20260506123523 | 54 | 238 | 0.9 | 4.3 | 0.00 | 0.00 | 0.00 | 72 | 1017.3 |
| 20260506123021 | 54 | 197 | 0.0 | 2.6 | 0.00 | 0.00 | 0.00 | 72 | 1017.3 |
| 20260506122521 | 54 | 211 | 0.0 | 0.0 | 0.00 | 0.00 | 0.00 | 72 | 1017.2 |
| 20260506122020 | 54 | 225 | 0.0 | 1.7 | 0.00 | 0.00 | 0.00 | 72 | 1017.1 |
| 20260506121521 | 54 | 180 | 0.0 | 1.7 | 0.00 | 0.00 | 0.00 | 73 | 1017.1 |
| 20260506121020 | 54 | 199 | 0.0 | 2.6 | 0.00 | 0.00 | 0.00 | 73 | 1017.1 |
| 20260506120522 | 54 | 227 | 0.0 | 3.5 | 0.00 | 0.00 | 0.00 | 73 | 1017.0 |
| 20260506120021 | 54 | 216 | 0.0 | 3.5 | 0.00 | 0.00 | 0.00 | 73 | 1016.9 |
| 20260506115519 | 54 | 204 | 0.0 | 0.0 | 0.00 | 0.00 | 0.00 | 73 | 1016.9 |
| 20260506115017 | 54 | 196 | 0.0 | 2.6 | 0.00 | 0.00 | 0.00 | 73 | 1017.0 |
| 20260506114518 | 54 | 225 | 0.0 | 2.6 | 0.00 | 0.00 | 0.00 | 73 | 1016.9 |
| 20260506114017 | 54 | 150 | 0.0 | 3.5 | 0.00 | 0.00 | 0.00 | 73 | 1016.9 |
| 20260506113517 | 54 | 194 | 0.0 | 3.5 | 0.00 | 0.00 | 0.00 | 73 | 1016.9 |
| 20260506113016 | 54 | 186 | 0.0 | 2.6 | 0.00 | 0.00 | 0.00 | 73 | 1016.8 |
| 20260506112516 | 54 | 177 | 0.0 | 2.6 | 0.00 | 0.00 | 0.00 | 73 | 1016.6 |
| 20260506112015 | 54 | 192 | 0.0 | 2.6 | 0.00 | 0.00 | 0.00 | 73 | 1016.7 |
| 20260506111515 | 54 | 164 | 0.0 | 1.7 | 0.00 | 0.00 | 0.00 | 73 | 1016.6 |
| 20260506111015 | 54 | 158 | 0.0 | 0.0 | 0.00 | 0.00 | 0.00 | 73 | 1016.7 |
| 20260506110515 | 54 | 198 | 0.0 | 1.7 | 0.00 | 0.00 | 0.00 | 73 | 1016.7 |
| 20260506110017 | 54 | 203 | 0.0 | 1.7 | 0.00 | 0.00 | 0.00 | 73 | 1016.6 |
| 20260506105513 | 54 | 197 | 0.0 | 2.6 | 0.00 | 0.00 | 0.00 | 73 | 1016.6 |
| 20260506105019 | 54 | 192 | 0.0 | 2.6 | 0.00 | 0.00 | 0.00 | 73 | 1016.5 |
| 20260506104513 | 54 | 196 | 0.0 | 2.6 | 0.00 | 0.00 | 0.00 | 73 | 1016.5 |
| 20260506104012 | 54 | 215 | 0.0 | 2.6 | 0.00 | 0.00 | 0.00 | 73 | 1016.5 |
| 20260506103514 | 54 | 188 | 0.0 | 0.0 | 0.00 | 0.00 | 0.00 | 73 | 1016.4 |
| 20260506103012 | 54 | 179 | 0.0 | 2.6 | 0.00 | 0.00 | 0.00 | 73 | 1016.5 |
| 20260506102512 | 54 | 186 | 0.0 | 3.5 | 0.00 | 0.00 | 0.00 | 73 | 1016.4 |
| 20260506102011 | 54 | 189 | 0.9 | 3.5 | 0.00 | 0.00 | 0.00 | 73 | 1016.4 |
| 20260506101521 | 54 | 222 | 0.0 | 7.0 | 0.00 | 0.00 | 0.00 | 74 | 1016.4 |
| 20260506101010 | 54 | 207 | 0.0 | 7.0 | 0.00 | 0.00 | 0.00 | 74 | 1016.4 |
| 20260506100512 | 54 | 215 | 0.0 | 4.3 | 0.00 | 0.00 | 0.00 | 74 | 1016.4 |
| 20260506100009 | 54 | 244 | 0.9 | 4.3 | 0.00 | 0.00 | 0.00 | 74 | 1016.3 |
| 20260506095509 | 54 | 227 | 0.0 | 3.5 | 0.00 | 0.00 | 0.00 | 74 | 1016.3 |
| 20260506095008 | 54 | 190 | 0.0 | 5.2 | 0.00 | 0.00 | 0.00 | 74 | 1016.3 |
| 20260506094519 | 54 | 186 | 0.0 | 5.2 | 0.00 | 0.00 | 0.00 | 74 | 1016.1 |
| 20260506094008 | 54 | 188 | 0.0 | 6.1 | 0.00 | 0.00 | 0.00 | 74 | 1016.1 |
| 20260506093506 | 54 | 230 | 0.9 | 6.1 | 0.00 | 0.00 | 0.00 | 74 | 1016.0 |
| 20260506093013 | 54 | 195 | 0.9 | 5.2 | 0.00 | 0.00 | 0.00 | 74 | 1016.0 |
| 20260506092506 | 54 | 205 | 0.0 | 4.3 | 0.00 | 0.00 | 0.00 | 75 | 1016.0 |
| 20260506092007 | 54 | 223 | 0.9 | 5.2 | 0.00 | 0.00 | 0.00 | 75 | 1015.9 |
| 20260506091505 | 54 | 219 | 0.0 | 3.5 | 0.00 | 0.00 | 0.00 | 75 | 1015.8 |
| 20260506091005 | 54 | 192 | 0.0 | 6.1 | 0.00 | 0.00 | 0.00 | 75 | 1015.8 |
| 20260506090504 | 54 | 190 | 0.9 | 2.6 | 0.00 | 0.00 | 0.00 | 75 | 1015.8 |
| 20260506090003 | 54 | 207 | 0.0 | 2.6 | 0.00 | 0.00 | 0.00 | 76 | 1015.8 |
| 20260506085502 | 54 | 194 | 0.0 | 2.6 | 0.00 | 0.00 | 0.00 | 76 | 1015.8 |
| 20260506085002 | 54 | 192 | 0.0 | 4.3 | 0.00 | 0.00 | 0.00 | 76 | 1015.7 |
| 20260506084502 | 54 | 165 | 0.9 | 4.3 | 0.00 | 0.00 | 0.00 | 76 | 1015.7 |
| 20260506084100 | 54 | 200 | 0.0 | 2.6 | 0.00 | 0.00 | 0.00 | 76 | 1015.7 |
| 20260506083558 | 55 | 201 | 0.0 | 2.6 | 0.00 | 0.00 | 0.00 | 76 | 1015.5 |
| 20260506083058 | 55 | 207 | 0.0 | 1.7 | 0.00 | 0.00 | 0.00 | 76 | 1015.4 |
| 20260506082556 | 55 | 200 | 0.0 | 1.7 | 0.00 | 0.00 | 0.00 | 76 | 1015.4 |
| 20260506082057 | 55 | 195 | 0.0 | 4.3 | 0.00 | 0.00 | 0.00 | 76 | 1015.3 |
| 20260506081600 | 55 | 193 | 0.9 | 4.3 | 0.00 | 0.00 | 0.00 | 76 | 1015.4 |
| 20260506081055 | 55 | 188 | 0.0 | 4.3 | 0.00 | 0.00 | 0.00 | 76 | 1015.3 |
| 20260506080555 | 55 | 192 | 0.9 | 4.3 | 0.00 | 0.00 | 0.00 | 77 | 1015.3 |
| 20260506073051 | 56 | 198 | 0.9 | 4.3 | 0.00 | 0.00 | 0.00 | 78 | 1015.0 |
| 20260506072550 | 56 | 174 | 0.0 | 3.5 | 0.00 | 0.00 | 0.00 | 78 | 1015.0 |
| 20260506072048 | 56 | 194 | 0.0 | 4.3 | 0.00 | 0.00 | 0.00 | 78 | 1015.0 |
| 20260506071547 | 56 | 166 | 0.9 | 4.3 | 0.00 | 0.00 | 0.00 | 78 | 1015.0 |
| 20260506071048 | 56 | 209 | 0.9 | 3.5 | 0.00 | 0.00 | 0.00 | 79 | 1015.0 |
| 20260506070546 | 57 | 187 | 0.9 | 3.5 | 0.00 | 0.00 | 0.00 | 79 | 1015.0 |
| 20260506062044 | 58 | 186 | 0.0 | 0.0 | 0.00 | 0.00 | 0.00 | 82 | 1014.7 |
| 20260506061544 | 58 | 186 | 0.0 | 0.9 | 0.00 | 0.00 | 0.00 | 82 | 1014.7 |
| 20260506061044 | 58 | 186 | 0.0 | 4.3 | 0.00 | 0.00 | 0.00 | 82 | 1014.7 |
| 20260506060543 | 59 | 218 | 0.0 | 1.7 | 0.00 | 0.00 | 0.00 | 82 | 1014.6 |